| time (UTC) | temp F | wind direction | speed MPH | gust MPH | rain 1hr in | rain 24hr in | rain mn in | humidity % | barometer mb |
| 20260831124542 | 73 | 199 | 5.0 | 16.0 | 0.00 | 0.40 | 0.00 | 54 | 1015.7 |
| 20260831124046 | 72 | 314 | 3.0 | 17.0 | 0.00 | 0.40 | 0.00 | 56 | 1015.7 |
| 20260831123542 | 72 | 232 | 13.0 | 15.0 | 0.00 | 0.40 | 0.00 | 58 | 1015.7 |
| 20260831123045 | 73 | 173 | 4.0 | 13.0 | 0.00 | 0.40 | 0.00 | 58 | 1015.6 |
| 20260831122542 | 74 | 79 | 5.0 | 13.0 | 0.00 | 0.40 | 0.00 | 59 | 1015.6 |
| 20260831122045 | 73 | 141 | 7.0 | 12.0 | 0.00 | 0.40 | 0.00 | 60 | 1015.6 |
| 20260831121545 | 72 | 133 | 6.0 | 17.0 | 0.00 | 0.40 | 0.00 | 60 | 1015.6 |
| 20260831121049 | 72 | 155 | 9.0 | 16.0 | 0.00 | 0.40 | 0.00 | 61 | 1015.7 |
| 20260831120542 | 72 | 42 | 5.0 | 15.0 | 0.00 | 0.40 | 0.00 | 62 | 1015.7 |
| 20260831120045 | 72 | 68 | 5.0 | 13.0 | 0.00 | 0.40 | 0.00 | 62 | 1015.7 |
| 20260831115545 | 72 | 113 | 6.0 | 12.0 | 0.00 | 0.40 | 0.00 | 63 | 1015.6 |
| 20260831115045 | 72 | 193 | 5.0 | 15.0 | 0.00 | 0.40 | 0.00 | 64 | 1015.6 |
| 20260831114542 | 71 | 143 | 5.0 | 12.0 | 0.00 | 0.40 | 0.00 | 67 | 1015.6 |
| 20260831114046 | 71 | 158 | 2.0 | 11.0 | 0.00 | 0.40 | 0.00 | 69 | 1015.6 |
| 20260831113551 | 70 | 164 | 7.0 | 14.0 | 0.00 | 0.40 | 0.00 | 69 | 1015.6 |
| 20260831113042 | 70 | 184 | 5.0 | 12.0 | 0.00 | 0.40 | 0.00 | 70 | 1015.6 |
| 20260831112542 | 70 | 183 | 8.0 | 10.0 | 0.00 | 0.40 | 0.00 | 70 | 1015.7 |
| 20260831112048 | 70 | 145 | 7.0 | 12.0 | 0.00 | 0.40 | 0.00 | 70 | 1015.6 |
| 20260831111542 | 71 | 102 | 6.0 | 15.0 | 0.00 | 0.40 | 0.00 | 70 | 1015.7 |
| 20260831111049 | 71 | 172 | 7.0 | 16.0 | 0.00 | 0.40 | 0.00 | 71 | 1015.6 |
| 20260831110542 | 70 | 108 | 7.0 | 14.0 | 0.00 | 0.40 | 0.00 | 74 | 1015.7 |
| 20260831110045 | 69 | 131 | 5.0 | 13.0 | 0.00 | 0.40 | 0.00 | 74 | 1015.8 |
| 20260831105545 | 69 | 189 | 14.0 | 19.0 | 0.00 | 0.40 | 0.00 | 74 | 1015.8 |
| 20260831105045 | 69 | 179 | 13.0 | 19.0 | 0.00 | 0.40 | 0.00 | 76 | 1015.8 |
| 20260831104545 | 69 | 177 | 7.0 | 14.0 | 0.00 | 0.40 | 0.00 | 76 | 1015.7 |
| 20260831104046 | 69 | 173 | 11.0 | 16.0 | 0.00 | 0.40 | 0.00 | 77 | 1015.8 |
| 20260831103542 | 68 | 187 | 4.0 | 8.0 | 0.00 | 0.40 | 0.00 | 81 | 1015.7 |
| 20260831103042 | 67 | 219 | 5.0 | 15.0 | 0.00 | 0.40 | 0.00 | 81 | 1015.7 |
| 20260831102542 | 67 | 164 | 6.0 | 16.0 | 0.00 | 0.40 | 0.00 | 82 | 1015.7 |
| 20260831102051 | 67 | 195 | 7.0 | 16.0 | 0.00 | 0.40 | 0.00 | 82 | 1015.7 |
| 20260831101548 | 67 | 143 | 7.0 | 18.0 | 0.00 | 0.40 | 0.00 | 85 | 1015.7 |
| 20260831101043 | 66 | 139 | 7.0 | 10.0 | 0.00 | 0.40 | 0.00 | 86 | 1015.7 |
| 20260831100545 | 66 | 154 | 6.0 | 10.0 | 0.00 | 0.40 | 0.00 | 87 | 1015.8 |
| 20260831100041 | 66 | 168 | 5.0 | 14.0 | 0.00 | 0.40 | 0.00 | 88 | 1015.8 |
| 20260831095541 | 65 | 172 | 7.0 | 7.0 | 0.00 | 0.40 | 0.00 | 89 | 1015.8 |
| 20260831095042 | 65 | 138 | 2.0 | 7.0 | 0.00 | 0.40 | 0.00 | 90 | 1015.8 |
| 20260831094544 | 65 | 162 | 4.0 | 10.0 | 0.00 | 0.40 | 0.00 | 90 | 1015.8 |
| 20260831094052 | 65 | 126 | 2.0 | 9.0 | 0.00 | 0.40 | 0.00 | 91 | 1015.8 |
| 20260831093551 | 64 | 139 | 8.0 | 12.0 | 0.00 | 0.40 | 0.00 | 92 | 1015.8 |
| 20260831093045 | 64 | 88 | 2.0 | 7.0 | 0.00 | 0.40 | 0.00 | 93 | 1015.8 |
| 20260831092542 | 64 | 90 | 4.0 | 9.0 | 0.00 | 0.40 | 0.00 | 93 | 1015.8 |
| 20260831092042 | 63 | 105 | 5.0 | 8.0 | 0.00 | 0.40 | 0.00 | 94 | 1015.8 |
| 20260831091545 | 63 | 61 | 9.0 | 9.0 | 0.00 | 0.40 | 0.00 | 94 | 1015.8 |
| 20260831091043 | 63 | 100 | 6.0 | 9.0 | 0.00 | 0.40 | 0.00 | 94 | 1015.7 |
| 20260831090545 | 62 | 129 | 5.0 | 9.0 | 0.00 | 0.40 | 0.00 | 94 | 1015.7 |
| 20260831090042 | 62 | 114 | 4.0 | 7.0 | 0.00 | 0.40 | 0.00 | 94 | 1015.7 |
| 20260831085545 | 62 | 87 | 2.0 | 10.0 | 0.00 | 0.40 | 0.00 | 94 | 1015.7 |
| 20260831085045 | 62 | 127 | 9.0 | 9.0 | 0.00 | 0.40 | 0.00 | 94 | 1015.6 |
| 20260831084542 | 62 | 108 | 6.0 | 8.0 | 0.00 | 0.40 | 0.00 | 94 | 1015.5 |
| 20260831084043 | 62 | 103 | 3.0 | 7.0 | 0.00 | 0.40 | 0.00 | 94 | 1015.5 |
| 20260831083545 | 62 | 85 | 2.0 | 6.0 | 0.00 | 0.40 | 0.00 | 94 | 1015.4 |
| 20260831083048 | 62 | 102 | 4.0 | 6.0 | 0.00 | 0.40 | 0.00 | 94 | 1015.4 |
| 20260831082548 | 61 | 85 | 4.0 | 5.0 | 0.00 | 0.40 | 0.00 | 94 | 1015.4 |
| 20260831082051 | 61 | 160 | 0.0 | 3.0 | 0.00 | 0.40 | 0.00 | 94 | 1015.3 |
| 20260831081548 | 61 | 160 | 3.0 | 4.0 | 0.00 | 0.40 | 0.00 | 94 | 1015.4 |
| 20260831081046 | 61 | 102 | 2.0 | 3.0 | 0.00 | 0.40 | 0.00 | 93 | 1015.1 |
| 20260831080545 | 61 | 103 | 2.0 | 3.0 | 0.03 | 0.40 | 0.00 | 94 | 1015.2 |
| 20260831080048 | 61 | 102 | 2.0 | 3.0 | 0.05 | 0.40 | 0.00 | 94 | 1015.2 |
| 20260831075551 | 61 | 102 | 1.0 | 3.0 | 0.07 | 0.40 | 0.00 | 93 | 1015.0 |
| 20260831075051 | 60 | 102 | 2.0 | 3.0 | 0.10 | 0.40 | 0.00 | 93 | 1015.0 |
| 20260831074545 | 60 | 103 | 1.0 | 1.0 | 0.11 | 0.40 | 0.00 | 93 | 1014.9 |
| 20260831074043 | 60 | 102 | 0.0 | 2.0 | 0.14 | 0.40 | 0.00 | 93 | 1014.9 |
| 20260831073542 | 60 | 103 | 0.0 | 5.0 | 0.16 | 0.40 | 0.00 | 93 | 1015.0 |
| 20260831073048 | 60 | 75 | 4.0 | 6.0 | 0.18 | 0.40 | 0.00 | 92 | 1015.0 |
| 20260831072545 | 60 | 83 | 1.0 | 5.0 | 0.26 | 0.40 | 0.00 | 92 | 1015.0 |
| 20260831072048 | 60 | 77 | 5.0 | 5.0 | 0.38 | 0.39 | 0.00 | 92 | 1015.2 |
| 20260831071548 | 60 | 167 | 0.0 | 3.0 | 0.39 | 0.39 | 0.00 | 92 | 1015.0 |
| 20260831071046 | 60 | 167 | 1.0 | 3.0 | 0.39 | 0.39 | 0.00 | 92 | 1015.2 |
| 20260831070545 | 60 | 190 | 1.0 | 4.0 | 0.37 | 0.37 | 0.00 | 92 | 1015.4 |
| 20260831070042 | 60 | 143 | 1.0 | 6.0 | 0.34 | 0.34 | 0.00 | 91 | 1015.6 |
| 20260831065545 | 60 | 120 | 3.0 | 10.0 | 0.32 | 0.32 | 0.00 | 91 | 1015.6 |
| 20260831065045 | 61 | 188 | 9.0 | 13.0 | 0.29 | 0.29 | 0.00 | 91 | 1015.5 |
| 20260831064545 | 61 | 203 | 6.0 | 16.0 | 0.29 | 0.29 | 0.00 | 91 | 1015.4 |
| 20260831064049 | 61 | 158 | 5.0 | 22.0 | 0.25 | 0.25 | 0.00 | 90 | 1015.5 |
| 20260831063542 | 61 | 160 | 16.0 | 21.0 | 0.23 | 0.23 | 0.00 | 89 | 1015.6 |
| 20260831063045 | 61 | 191 | 15.0 | 24.0 | 0.21 | 0.21 | 0.00 | 88 | 1015.5 |
| 20260831062542 | 63 | 133 | 11.0 | 26.0 | 0.13 | 0.13 | 0.00 | 85 | 1015.3 |
| 20260831062042 | 64 | 193 | 19.0 | 24.0 | 0.00 | 0.00 | 0.00 | 81 | 1015.6 |
| 20260831061545 | 64 | 191 | 4.0 | 8.0 | 0.00 | 0.00 | 0.00 | 81 | 1014.3 |
| 20260831061043 | 64 | 74 | 1.0 | 2.0 | 0.00 | 0.00 | 0.00 | 82 | 1013.7 |
| 20260831060542 | 64 | 73 | 1.0 | 4.0 | 0.00 | 0.00 | 0.00 | 82 | 1013.6 |
| 20260831060045 | 64 | 85 | 2.0 | 5.0 | 0.00 | 0.00 | 0.00 | 82 | 1013.6 |
| 20260831055541 | 63 | 108 | 4.0 | 5.0 | 0.00 | 0.00 | 0.00 | 82 | 1013.6 |
| 20260831055041 | 64 | 56 | 2.0 | 5.0 | 0.00 | 0.00 | 0.00 | 82 | 1013.6 |
| 20260831054541 | 64 | 70 | 2.0 | 5.0 | 0.00 | 0.00 | 0.00 | 81 | 1013.8 |
| 20260831054046 | 64 | 106 | 2.0 | 4.0 | 0.00 | 0.00 | 0.00 | 81 | 1013.7 |
| 20260831053547 | 64 | 106 | 3.0 | 4.0 | 0.00 | 0.00 | 0.00 | 81 | 1013.8 |
| 20260831053050 | 64 | 106 | 3.0 | 3.0 | 0.00 | 0.00 | 0.00 | 80 | 1013.8 |
| 20260831052541 | 64 | 106 | 2.0 | 3.0 | 0.00 | 0.00 | 0.00 | 81 | 1013.8 |
| 20260831052042 | 64 | 106 | 2.0 | 4.0 | 0.00 | 0.00 | 0.00 | 80 | 1013.8 |
| 20260831051545 | 64 | 106 | 2.0 | 4.0 | 0.00 | 0.00 | 0.00 | 80 | 1013.8 |
| 20260831051043 | 64 | 106 | 2.0 | 3.0 | 0.00 | 0.00 | 0.00 | 80 | 1013.9 |
| 20260831050544 | 64 | 106 | 3.0 | 4.0 | 0.00 | 0.00 | 0.00 | 80 | 1013.9 |
| 20260831050045 | 64 | 106 | 3.0 | 4.0 | 0.00 | 0.00 | 0.00 | 80 | 1014.0 |
| 20260831045542 | 64 | 106 | 3.0 | 5.0 | 0.00 | 0.00 | 0.00 | 80 | 1014.0 |
| 20260831045042 | 64 | 139 | 5.0 | 6.0 | 0.00 | 0.00 | 0.00 | 80 | 1014.0 |
| 20260831044544 | 64 | 164 | 5.0 | 6.0 | 0.00 | 0.00 | 0.00 | 80 | 1014.0 |
| 20260831044043 | 64 | 127 | 5.0 | 6.0 | 0.00 | 0.00 | 0.00 | 79 | 1014.1 |
| 20260831043548 | 64 | 132 | 5.0 | 6.0 | 0.00 | 0.00 | 0.00 | 80 | 1014.1 |
| 20260831043048 | 64 | 116 | 4.0 | 6.0 | 0.00 | 0.00 | 0.00 | 80 | 1014.0 |
| 20260831042542 | 64 | 112 | 5.0 | 6.0 | 0.00 | 0.00 | 0.00 | 79 | 1014.1 |
| 20260831042047 | 64 | 119 | 5.0 | 6.0 | 0.00 | 0.00 | 0.00 | 78 | 1014.1 |
| 20260831041542 | 64 | 91 | 4.0 | 5.0 | 0.00 | 0.00 | 0.00 | 78 | 1014.1 |
| 20260831041046 | 65 | 104 | 3.0 | 5.0 | 0.00 | 0.00 | 0.00 | 77 | 1014.1 |
| 20260831040551 | 65 | 126 | 3.0 | 6.0 | 0.00 | 0.00 | 0.00 | 77 | 1014.2 |
| 20260831040051 | 65 | 112 | 4.0 | 6.0 | 0.00 | 0.00 | 0.00 | 77 | 1014.2 |
| 20260831035545 | 65 | 148 | 4.0 | 5.0 | 0.00 | 0.00 | 0.00 | 77 | 1014.3 |
| 20260831035042 | 65 | 128 | 3.0 | 5.0 | 0.00 | 0.00 | 0.00 | 77 | 1014.3 |
| 20260831034542 | 65 | 122 | 3.0 | 5.0 | 0.00 | 0.00 | 0.00 | 77 | 1014.3 |
| 20260831034043 | 65 | 146 | 3.0 | 5.0 | 0.00 | 0.00 | 0.00 | 77 | 1014.4 |
| 20260831033542 | 65 | 129 | 3.0 | 5.0 | 0.00 | 0.00 | 0.00 | 77 | 1014.5 |
| 20260831033042 | 65 | 114 | 4.0 | 7.0 | 0.00 | 0.00 | 0.00 | 78 | 1014.7 |
| 20260831032545 | 64 | 143 | 5.0 | 6.0 | 0.00 | 0.00 | 0.00 | 78 | 1014.7 |
| 20260831032048 | 64 | 151 | 4.0 | 5.0 | 0.00 | 0.00 | 0.00 | 78 | 1014.6 |
| 20260831031542 | 64 | 142 | 3.0 | 5.0 | 0.00 | 0.00 | 0.00 | 78 | 1014.7 |
| 20260831031046 | 64 | 119 | 4.0 | 5.0 | 0.00 | 0.00 | 0.00 | 78 | 1014.9 |
| 20260831030545 | 64 | 127 | 3.0 | 6.0 | 0.00 | 0.00 | 0.00 | 78 | 1014.9 |
| 20260831030048 | 65 | 110 | 4.0 | 5.0 | 0.00 | 0.00 | 0.00 | 77 | 1015.0 |
| 20260831025542 | 65 | 111 | 4.0 | 5.0 | 0.00 | 0.00 | 0.00 | 76 | 1015.0 |
| 20260831025045 | 65 | 113 | 5.0 | 5.0 | 0.00 | 0.00 | 0.00 | 75 | 1015.0 |
| 20260831024542 | 66 | 118 | 4.0 | 5.0 | 0.00 | 0.00 | 0.00 | 75 | 1015.0 |
| 20260831024043 | 66 | 117 | 3.0 | 7.0 | 0.00 | 0.00 | 0.00 | 75 | 1015.1 |
| 20260831023542 | 65 | 112 | 5.0 | 8.0 | 0.00 | 0.00 | 0.00 | 75 | 1015.2 |
| 20260831023045 | 66 | 116 | 4.0 | 5.0 | 0.00 | 0.00 | 0.00 | 74 | 1015.2 |
| 20260831022542 | 66 | 116 | 5.0 | 6.0 | 0.00 | 0.00 | 0.00 | 74 | 1015.3 |
| 20260831022042 | 66 | 136 | 4.0 | 5.0 | 0.00 | 0.00 | 0.00 | 74 | 1015.3 |
| 20260831021545 | 66 | 132 | 3.0 | 5.0 | 0.00 | 0.00 | 0.00 | 74 | 1015.3 |
| 20260831021043 | 66 | 136 | 5.0 | 6.0 | 0.00 | 0.00 | 0.00 | 74 | 1015.3 |
| 20260831020548 | 66 | 103 | 4.0 | 7.0 | 0.00 | 0.00 | 0.00 | 75 | 1015.3 |
| 20260831020044 | 65 | 133 | 4.0 | 6.0 | 0.00 | 0.00 | 0.00 | 75 | 1015.4 |
| 20260831015544 | 65 | 133 | 4.0 | 6.0 | 0.00 | 0.00 | 0.00 | 75 | 1015.3 |
| 20260831015047 | 65 | 122 | 4.0 | 6.0 | 0.00 | 0.00 | 0.00 | 75 | 1015.4 |
| 20260831014541 | 66 | 137 | 5.0 | 6.0 | 0.00 | 0.00 | 0.00 | 75 | 1015.4 |
| 20260831014046 | 66 | 121 | 6.0 | 6.0 | 0.00 | 0.00 | 0.00 | 74 | 1015.4 |
| 20260831013544 | 66 | 116 | 2.0 | 4.0 | 0.00 | 0.00 | 0.00 | 74 | 1015.4 |
| 20260831013047 | 66 | 116 | 2.0 | 4.0 | 0.00 | 0.00 | 0.00 | 74 | 1015.4 |
| 20260831012541 | 66 | 116 | 4.0 | 5.0 | 0.00 | 0.00 | 0.00 | 73 | 1015.4 |
| 20260831012041 | 66 | 116 | 3.0 | 5.0 | 0.00 | 0.00 | 0.00 | 72 | 1015.5 |
| 20260831011547 | 68 | 107 | 4.0 | 5.0 | 0.00 | 0.00 | 0.00 | 69 | 1015.5 |
| 20260831011043 | 69 | 143 | 3.0 | 3.0 | 0.00 | 0.00 | 0.00 | 67 | 1015.5 |
| 20260831010542 | 69 | 139 | 3.0 | 5.0 | 0.00 | 0.00 | 0.00 | 68 | 1015.6 |
| 20260831010045 | 69 | 175 | 4.0 | 4.0 | 0.00 | 0.00 | 0.00 | 68 | 1015.6 |
| 20260831005541 | 69 | 154 | 2.0 | 6.0 | 0.00 | 0.00 | 0.00 | 68 | 1015.7 |
| 20260831005041 | 69 | 162 | 2.0 | 5.0 | 0.00 | 0.00 | 0.00 | 68 | 1015.7 |
| 20260831004542 | 69 | 170 | 2.0 | 7.0 | 0.00 | 0.00 | 0.00 | 68 | 1015.8 |
| 20260831004049 | 69 | 143 | 6.0 | 9.0 | 0.00 | 0.00 | 0.00 | 68 | 1015.7 |
| 20260831003544 | 69 | 143 | 7.0 | 7.0 | 0.00 | 0.00 | 0.00 | 68 | 1015.7 |
| 20260831003050 | 69 | 132 | 5.0 | 7.0 | 0.00 | 0.00 | 0.00 | 68 | 1015.8 |
| 20260831002547 | 69 | 135 | 5.0 | 6.0 | 0.00 | 0.00 | 0.00 | 68 | 1015.8 |
| 20260831002044 | 69 | 155 | 6.0 | 6.0 | 0.00 | 0.00 | 0.00 | 68 | 1015.8 |
| 20260831001545 | 69 | 135 | 6.0 | 7.0 | 0.00 | 0.00 | 0.00 | 68 | 1015.8 |
| 20260831001043 | 69 | 160 | 4.0 | 7.0 | 0.00 | 0.00 | 0.00 | 68 | 1015.9 |
| 20260831000544 | 69 | 149 | 6.0 | 7.0 | 0.00 | 0.00 | 0.00 | 68 | 1015.8 |
| 20260831000044 | 69 | 151 | 5.0 | 7.0 | 0.00 | 0.00 | 0.00 | 68 | 1015.8 |
| 20260830235542 | 68 | 133 | 5.0 | 6.0 | 0.00 | 0.00 | 0.00 | 68 | 1015.9 |
| 20260830235048 | 69 | 151 | 5.0 | 6.0 | 0.00 | 0.00 | 0.00 | 68 | 1015.8 |
| 20260830234542 | 69 | 143 | 5.0 | 5.0 | 0.00 | 0.00 | 0.00 | 67 | 1015.8 |
| 20260830234043 | 69 | 142 | 4.0 | 7.0 | 0.00 | 0.00 | 0.00 | 67 | 1015.8 |
| 20260830233542 | 69 | 156 | 6.0 | 7.0 | 0.00 | 0.00 | 0.00 | 66 | 1015.8 |
| 20260830233042 | 69 | 154 | 6.0 | 7.0 | 0.00 | 0.00 | 0.00 | 66 | 1015.8 |
| 20260830232545 | 69 | 152 | 5.0 | 7.0 | 0.00 | 0.00 | 0.00 | 66 | 1015.9 |
| 20260830232045 | 69 | 154 | 4.0 | 7.0 | 0.00 | 0.00 | 0.00 | 67 | 1015.9 |
| 20260830231542 | 69 | 151 | 3.0 | 5.0 | 0.00 | 0.00 | 0.00 | 67 | 1016.0 |
| 20260830231043 | 69 | 127 | 3.0 | 4.0 | 0.00 | 0.00 | 0.00 | 67 | 1016.1 |
| 20260830230545 | 69 | 126 | 3.0 | 4.0 | 0.00 | 0.00 | 0.00 | 67 | 1016.0 |
| 20260830230045 | 68 | 142 | 4.0 | 5.0 | 0.00 | 0.00 | 0.00 | 68 | 1016.1 |
| 20260830225545 | 68 | 134 | 4.0 | 5.0 | 0.00 | 0.00 | 0.00 | 68 | 1016.1 |
| 20260830225042 | 68 | 110 | 4.0 | 6.0 | 0.00 | 0.00 | 0.00 | 68 | 1016.1 |
| 20260830224545 | 69 | 95 | 4.0 | 6.0 | 0.00 | 0.00 | 0.00 | 66 | 1016.1 |
| 20260830224046 | 71 | 130 | 3.0 | 7.0 | 0.00 | 0.00 | 0.00 | 62 | 1016.1 |
| 20260830223542 | 71 | 168 | 5.0 | 7.0 | 0.00 | 0.00 | 0.00 | 62 | 1016.1 |
| 20260830223045 | 71 | 180 | 4.0 | 7.0 | 0.00 | 0.00 | 0.00 | 62 | 1016.1 |
| 20260830222551 | 71 | 152 | 4.0 | 7.0 | 0.00 | 0.00 | 0.00 | 62 | 1016.2 |
| 20260830222045 | 71 | 162 | 6.0 | 7.0 | 0.00 | 0.00 | 0.00 | 62 | 1016.2 |
| 20260830221542 | 71 | 133 | 4.0 | 6.0 | 0.00 | 0.00 | 0.00 | 62 | 1016.2 |
| 20260830221046 | 71 | 198 | 2.0 | 6.0 | 0.00 | 0.00 | 0.00 | 62 | 1016.2 |
| 20260830220541 | 71 | 166 | 6.0 | 6.0 | 0.00 | 0.00 | 0.00 | 61 | 1016.2 |
| 20260830220041 | 71 | 157 | 3.0 | 6.0 | 0.00 | 0.00 | 0.00 | 61 | 1016.2 |
| 20260830215544 | 71 | 159 | 3.0 | 5.0 | 0.00 | 0.00 | 0.00 | 61 | 1016.2 |
| 20260830215044 | 71 | 160 | 3.0 | 6.0 | 0.00 | 0.00 | 0.00 | 61 | 1016.2 |
| 20260830214545 | 71 | 162 | 4.0 | 5.0 | 0.00 | 0.00 | 0.00 | 61 | 1016.2 |
| 20260830214043 | 71 | 164 | 3.0 | 6.0 | 0.00 | 0.00 | 0.00 | 61 | 1016.2 |
| 20260830213544 | 72 | 155 | 4.0 | 7.0 | 0.00 | 0.00 | 0.00 | 60 | 1016.2 |
| 20260830213044 | 72 | 139 | 3.0 | 5.0 | 0.00 | 0.00 | 0.00 | 60 | 1016.2 |
| 20260830212544 | 72 | 213 | 3.0 | 5.0 | 0.00 | 0.00 | 0.00 | 59 | 1016.2 |
| 20260830212051 | 72 | 149 | 3.0 | 6.0 | 0.00 | 0.00 | 0.00 | 59 | 1016.3 |
| 20260830211541 | 72 | 145 | 3.0 | 7.0 | 0.00 | 0.00 | 0.00 | 58 | 1016.3 |
| 20260830211043 | 72 | 148 | 4.0 | 6.0 | 0.00 | 0.00 | 0.00 | 57 | 1016.3 |
| 20260830210547 | 72 | 179 | 4.0 | 5.0 | 0.00 | 0.00 | 0.00 | 58 | 1016.2 |
| 20260830210044 | 72 | 137 | 4.0 | 7.0 | 0.00 | 0.00 | 0.00 | 58 | 1016.3 |
| 20260830205542 | 72 | 161 | 4.0 | 7.0 | 0.00 | 0.00 | 0.00 | 58 | 1016.3 |
| 20260830205050 | 72 | 162 | 4.0 | 7.0 | 0.00 | 0.00 | 0.00 | 58 | 1016.4 |
| 20260830204547 | 73 | 162 | 5.0 | 6.0 | 0.00 | 0.00 | 0.00 | 58 | 1016.3 |
| 20260830204046 | 73 | 145 | 4.0 | 7.0 | 0.00 | 0.00 | 0.00 | 57 | 1016.2 |
| 20260830203544 | 72 | 154 | 5.0 | 6.0 | 0.00 | 0.00 | 0.00 | 57 | 1016.2 |
| 20260830203042 | 73 | 183 | 2.0 | 5.0 | 0.00 | 0.00 | 0.00 | 58 | 1016.2 |
| 20260830202541 | 73 | 162 | 4.0 | 6.0 | 0.00 | 0.00 | 0.00 | 58 | 1016.2 |
| 20260830202047 | 73 | 172 | 3.0 | 6.0 | 0.00 | 0.00 | 0.00 | 58 | 1016.2 |
| 20260830201547 | 73 | 190 | 2.0 | 6.0 | 0.00 | 0.00 | 0.00 | 58 | 1016.3 |
| 20260830201046 | 73 | 178 | 3.0 | 7.0 | 0.00 | 0.00 | 0.00 | 58 | 1016.3 |
| 20260830200542 | 73 | 203 | 3.0 | 7.0 | 0.00 | 0.00 | 0.00 | 59 | 1016.2 |
| 20260830200048 | 73 | 154 | 3.0 | 7.0 | 0.00 | 0.00 | 0.00 | 59 | 1016.2 |
| 20260830195544 | 73 | 171 | 6.0 | 6.0 | 0.00 | 0.00 | 0.00 | 58 | 1016.2 |
| 20260830195048 | 73 | 162 | 4.0 | 8.0 | 0.00 | 0.00 | 0.00 | 58 | 1016.2 |
| 20260830194541 | 73 | 184 | 2.0 | 6.0 | 0.00 | 0.00 | 0.00 | 57 | 1016.2 |
| 20260830194043 | 73 | 181 | 4.0 | 5.0 | 0.00 | 0.00 | 0.00 | 57 | 1016.1 |
| 20260830193541 | 73 | 167 | 1.0 | 6.0 | 0.00 | 0.00 | 0.00 | 58 | 1016.2 |
| 20260830193042 | 74 | 208 | 1.0 | 5.0 | 0.00 | 0.00 | 0.00 | 57 | 1016.2 |
| 20260830192542 | 74 | 231 | 3.0 | 6.0 | 0.00 | 0.00 | 0.00 | 57 | 1016.1 |
| 20260830192042 | 74 | 156 | 2.0 | 6.0 | 0.00 | 0.00 | 0.00 | 57 | 1016.1 |
| 20260830191542 | 74 | 149 | 5.0 | 7.0 | 0.00 | 0.00 | 0.00 | 58 | 1016.0 |
| 20260830191052 | 74 | 141 | 4.0 | 6.0 | 0.00 | 0.00 | 0.00 | 58 | 1016.1 |
| 20260830190548 | 74 | 131 | 3.0 | 4.0 | 0.00 | 0.00 | 0.00 | 58 | 1016.1 |
| 20260830190048 | 74 | 160 | 1.0 | 4.0 | 0.00 | 0.00 | 0.00 | 58 | 1016.1 |
| 20260830185542 | 74 | 174 | 2.0 | 5.0 | 0.00 | 0.00 | 0.00 | 57 | 1016.0 |
| 20260830185042 | 74 | 161 | 3.0 | 5.0 | 0.00 | 0.00 | 0.00 | 57 | 1016.0 |
| 20260830184542 | 74 | 150 | 2.0 | 4.0 | 0.00 | 0.00 | 0.00 | 57 | 1016.0 |
| 20260830184043 | 74 | 189 | 2.0 | 6.0 | 0.00 | 0.00 | 0.00 | 58 | 1015.9 |
| 20260830183542 | 74 | 160 | 4.0 | 5.0 | 0.00 | 0.00 | 0.00 | 57 | 1015.9 |
| 20260830183042 | 74 | 201 | 2.0 | 5.0 | 0.00 | 0.00 | 0.00 | 57 | 1015.7 |
| 20260830182542 | 75 | 188 | 3.0 | 5.0 | 0.00 | 0.00 | 0.00 | 57 | 1015.7 |
| 20260830182042 | 75 | 133 | 3.0 | 5.0 | 0.00 | 0.00 | 0.00 | 57 | 1015.7 |
| 20260830181542 | 75 | 145 | 3.0 | 5.0 | 0.00 | 0.00 | 0.00 | 57 | 1015.6 |
| 20260830181046 | 75 | 167 | 4.0 | 5.0 | 0.00 | 0.00 | 0.00 | 57 | 1015.5 |
| 20260830180544 | 75 | 185 | 2.0 | 4.0 | 0.00 | 0.00 | 0.00 | 56 | 1015.5 |
| 20260830180041 | 75 | 141 | 2.0 | 5.0 | 0.00 | 0.00 | 0.00 | 56 | 1015.4 |
| 20260830175541 | 75 | 159 | 2.0 | 5.0 | 0.00 | 0.00 | 0.00 | 56 | 1015.3 |
| 20260830175047 | 76 | 164 | 2.0 | 5.0 | 0.00 | 0.00 | 0.00 | 55 | 1015.3 |
| 20260830174544 | 76 | 145 | 2.0 | 4.0 | 0.00 | 0.00 | 0.00 | 55 | 1015.3 |
| 20260830174049 | 76 | 139 | 2.0 | 3.0 | 0.00 | 0.00 | 0.00 | 55 | 1015.3 |
| 20260830173541 | 76 | 139 | 1.0 | 4.0 | 0.00 | 0.00 | 0.00 | 54 | 1015.2 |
| 20260830173041 | 76 | 174 | 2.0 | 4.0 | 0.00 | 0.00 | 0.00 | 54 | 1015.2 |
| 20260830172541 | 76 | 147 | 2.0 | 5.0 | 0.00 | 0.00 | 0.00 | 53 | 1015.1 |
| 20260830172044 | 77 | 121 | 4.0 | 5.0 | 0.00 | 0.00 | 0.00 | 53 | 1015.1 |
| 20260830171541 | 77 | 134 | 4.0 | 4.0 | 0.00 | 0.00 | 0.00 | 52 | 1015.1 |
| 20260830171043 | 77 | 149 | 3.0 | 7.0 | 0.00 | 0.00 | 0.00 | 52 | 1015.1 |
| 20260830170547 | 77 | 131 | 4.0 | 7.0 | 0.00 | 0.00 | 0.00 | 51 | 1015.1 |
| 20260830170041 | 77 | 109 | 3.0 | 9.0 | 0.00 | 0.00 | 0.00 | 50 | 1015.1 |
| 20260830165547 | 77 | 139 | 1.0 | 10.0 | 0.00 | 0.00 | 0.00 | 49 | 1015.0 |
| 20260830165041 | 78 | 127 | 4.0 | 8.0 | 0.00 | 0.00 | 0.00 | 49 | 1015.1 |
| 20260830164545 | 78 | 121 | 2.0 | 7.0 | 0.00 | 0.00 | 0.00 | 49 | 1015.1 |
| 20260830164043 | 78 | 107 | 3.0 | 8.0 | 0.00 | 0.00 | 0.00 | 48 | 1015.1 |
| 20260830163544 | 78 | 135 | 2.0 | 6.0 | 0.00 | 0.00 | 0.00 | 48 | 1015.0 |
| 20260830163047 | 78 | 127 | 6.0 | 8.0 | 0.00 | 0.00 | 0.00 | 48 | 1015.0 |
| 20260830162547 | 78 | 138 | 5.0 | 8.0 | 0.00 | 0.00 | 0.00 | 47 | 1015.0 |
| 20260830162044 | 78 | 148 | 6.0 | 8.0 | 0.00 | 0.00 | 0.00 | 47 | 1015.0 |
| 20260830161541 | 78 | 191 | 4.0 | 9.0 | 0.00 | 0.00 | 0.00 | 46 | 1015.0 |
| 20260830161043 | 78 | 127 | 2.0 | 7.0 | 0.00 | 0.00 | 0.00 | 46 | 1015.0 |
| 20260830160545 | 78 | 188 | 5.0 | 9.0 | 0.00 | 0.00 | 0.00 | 46 | 1015.0 |
| 20260830160041 | 79 | 189 | 4.0 | 14.0 | 0.00 | 0.00 | 0.00 | 45 | 1015.0 |
| 20260830155551 | 79 | 123 | 6.0 | 16.0 | 0.00 | 0.00 | 0.00 | 45 | 1014.9 |
| 20260830155041 | 79 | 233 | 0.0 | 16.0 | 0.00 | 0.00 | 0.00 | 44 | 1014.9 |
| 20260830154544 | 80 | 184 | 15.0 | 16.0 | 0.00 | 0.00 | 0.00 | 43 | 1015.0 |
| 20260830154043 | 80 | 147 | 7.0 | 12.0 | 0.00 | 0.00 | 0.00 | 43 | 1015.0 |
| 20260830153541 | 81 | 245 | 3.0 | 9.0 | 0.00 | 0.00 | 0.00 | 43 | 1014.9 |
| 20260830153048 | 80 | 156 | 5.0 | 10.0 | 0.00 | 0.00 | 0.00 | 44 | 1014.9 |
| 20260830152541 | 80 | 113 | 5.0 | 12.0 | 0.00 | 0.00 | 0.00 | 44 | 1014.9 |
| 20260830152042 | 80 | 186 | 12.0 | 14.0 | 0.00 | 0.00 | 0.00 | 44 | 1014.9 |
| 20260830151542 | 79 | 113 | 2.0 | 12.0 | 0.00 | 0.00 | 0.00 | 45 | 1014.9 |
| 20260830151043 | 80 | 122 | 11.0 | 12.0 | 0.00 | 0.00 | 0.00 | 45 | 1014.9 |
| 20260830150542 | 79 | 155 | 5.0 | 12.0 | 0.00 | 0.00 | 0.00 | 46 | 1015.0 |
| 20260830150048 | 79 | 162 | 8.0 | 14.0 | 0.00 | 0.00 | 0.00 | 46 | 1014.9 |
| 20260830145541 | 79 | 154 | 9.0 | 17.0 | 0.00 | 0.00 | 0.00 | 45 | 1015.0 |
| 20260830145042 | 79 | 135 | 6.0 | 15.0 | 0.00 | 0.00 | 0.00 | 45 | 1014.9 |
| 20260830144541 | 79 | 172 | 9.0 | 15.0 | 0.00 | 0.00 | 0.00 | 45 | 1015.0 |
| 20260830144043 | 79 | 122 | 7.0 | 13.0 | 0.00 | 0.00 | 0.00 | 45 | 1015.0 |
| 20260830143542 | 79 | 140 | 7.0 | 11.0 | 0.00 | 0.00 | 0.00 | 46 | 1015.0 |
| 20260830143042 | 79 | 107 | 6.0 | 14.0 | 0.00 | 0.00 | 0.00 | 45 | 1015.1 |
| 20260830142548 | 79 | 146 | 6.0 | 10.0 | 0.00 | 0.00 | 0.00 | 46 | 1015.1 |
| 20260830142042 | 79 | 131 | 6.0 | 12.0 | 0.00 | 0.00 | 0.00 | 45 | 1015.1 |
| 20260830141545 | 79 | 154 | 10.0 | 14.0 | 0.00 | 0.00 | 0.00 | 45 | 1015.0 |
| 20260830141043 | 79 | 128 | 4.0 | 8.0 | 0.00 | 0.00 | 0.00 | 45 | 1015.1 |
| 20260830140541 | 78 | 189 | 4.0 | 13.0 | 0.00 | 0.00 | 0.00 | 46 | 1015.0 |
| 20260830140047 | 79 | 104 | 10.0 | 15.0 | 0.00 | 0.00 | 0.00 | 46 | 1015.0 |
| 20260830135544 | 79 | 136 | 5.0 | 9.0 | 0.00 | 0.00 | 0.00 | 47 | 1015.0 |
| 20260830135050 | 79 | 176 | 8.0 | 13.0 | 0.00 | 0.00 | 0.00 | 46 | 1015.1 |
| 20260830134541 | 79 | 78 | 4.0 | 14.0 | 0.00 | 0.00 | 0.00 | 48 | 1015.0 |
| 20260830134043 | 78 | 107 | 7.0 | 18.0 | 0.00 | 0.00 | 0.00 | 50 | 1015.1 |
| 20260830133541 | 77 | 76 | 11.0 | 13.0 | 0.00 | 0.00 | 0.00 | 51 | 1015.2 |
| 20260830133041 | 77 | 79 | 4.0 | 14.0 | 0.00 | 0.00 | 0.00 | 50 | 1015.3 |
| 20260830132544 | 78 | 120 | 9.0 | 18.0 | 0.00 | 0.00 | 0.00 | 50 | 1015.2 |
| 20260830132044 | 78 | 127 | 6.0 | 13.0 | 0.00 | 0.00 | 0.00 | 49 | 1015.2 |
| 20260830131541 | 78 | 120 | 9.0 | 16.0 | 0.00 | 0.00 | 0.00 | 48 | 1015.3 |
| 20260830131046 | 78 | 133 | 6.0 | 13.0 | 0.00 | 0.00 | 0.00 | 48 | 1015.3 |
| 20260830130544 | 78 | 156 | 11.0 | 13.0 | 0.00 | 0.00 | 0.00 | 47 | 1015.3 |
| 20260830130041 | 78 | 147 | 8.0 | 17.0 | 0.00 | 0.00 | 0.00 | 46 | 1015.3 |
| 20260830125547 | 79 | 100 | 2.0 | 16.0 | 0.00 | 0.00 | 0.00 | 46 | 1015.1 |
| 20260830125041 | 79 | 148 | 9.0 | 17.0 | 0.00 | 0.00 | 0.00 | 46 | 1015.1 |